Location: B?ezina
(49.8085°N, 13.6013°E)
Time: 00:59:42
(UTC+00:00)

Okean 1 - Pass Details

Date: 19 May 2025
Orbit: 478 x 498 km, 82.5° (Epoch: 23 June)

Event Time Altitude Azimuth Distance (km) Brightness Sun altitude
Exits shadow 21:43:38 17° 229° (SW) 1,287 5.0 -18.1°
Maximum altitude 21:45:55 34° 286° (WNW) 824 4.5 -18.2°
Drops below altitude 10° 21:49:18 10° 353° (N) 1,684 7.0 -18.4°
Sets 21:51:33 0° 3° (N) 2,566 8.0 -18.5°
